Location: Pacheco
(37.9835°N, 122.0752°W)
Time: 09:20:38
(UTC+00:00)

YAOGAN 6 - Pass Details

Date: 13 April 2024
Orbit: 415 x 435 km, 97.2° (Epoch: 23 May)

Event Time Altitude Azimuth Distance (km) Brightness Sun altitude
Rises 12:04:42 0° 5° (N) 2,392 6.5 -17.5°
Maximum altitude 12:09:54 47° 285° (WNW) 582 2.6 -16.6°
Enters shadow 12:10:25 42° 254° (WSW) 626 2.6 -16.5°
